Location: Bad Salzschlirf
(50.3750°N, 9.3000°E)
Time: 03:54:06
(UTC+02:00)

ISS - Pass Details

Date: 08 July 2025
Orbit: 413 x 417 km, 51.6° (Epoch: 12 July)

Event Time Altitude Azimuth Distance (km) Brightness Sun altitude
Rises 02:49:01 0° 282° (WNW) 2,357 0.0 -15.0°
Reaches altitude 10° 02:51:06 10° 284° (WNW) 1,494 -1.0 -14.9°
Maximum altitude 02:54:28 84° 12° (NNE) 424 -3.8 -14.7°
Drops below altitude 10° 02:57:49 10° 101° (ESE) 1,493 -0.8 -14.5°
Sets 02:59:55 0° 103° (ESE) 2,356 0.2 -14.4°
